STARLINK-2604 (48374 NORAD) Tracking and Keplerian Element Data

This shows tracking and keplerian element data for the satellite.

Feedback or suggestion? Click here.




ElementValue
Catalog48374
NameSTARLINK-2604
Epoch Orbit1395
Epoch Day214.71417562
Epoch Year2021
RAAN333.306
Inclination53.0548
Eccentricity0.0001172
Argument of Perigee110.5831
Mean Anonmoly249.5284
Mean Motion15.06396202
Decay Rate6.21E-06
L11 48374U 21038X 21214.71417562 .00000621 00000-0 60551-4 0 9993
L22 48374 53.0548 333.3060 0001172 110.5831 249.5284 15.06396202 13957

Live tracking and technical data element details for STARLINK-2604 (NORAD 48374). STARLINK-2604 can be tracked NOW for your location showing map with azimuth and elevation plus other details from your city location.

Track the satellite on the map from your city or location and see movement details for azimuth, elevation, latitude, longitude, range, height, and movement on the map or in text.







IsCatalogInMostPopularTable: catalog: 48374, numindb: 28
Update: records affected: 1



GetName: 48374 STARLINK-2604

Hit Count: updated at: Tue, 03 Aug 2021 20:53:50 GMT